Flag for Greece Weather past 2 weeks in Rhodes, Rhodes, Greece

Now
64 °F

Passing clouds.


Feels Like: 64 °F
Forecast: 59 / 65 °F
Wind: 13 mph from South

Location: Rhodes Airport

Current Time: Feb 1, 2015 at 6:23:01 AM

Latest Report: Feb 1, 2015 at 2:50 AM


Visibility: N/A

Pressure: 29.83 "Hg

Humidity: 56%

Dew point: 48 °F

Location of RhodesLocation

Historic Weather in Rhodes — Graph

°F

Rhodes temperature yesterday

Maximum temperature yesterday: 64 °F (at 1:50 PM)
Minimum temperature yesterday: 54 °F (at 12:50 AM)
Average temperature yesterday: 60 °F

Past Weeks' High & Low Weather Summary

 TemperatureHumidityPressure
High64 °F (Jan 20, 2:50 PM)94% (Jan 20, 1:50 AM)30.33 "Hg (Jan 20, 1:50 AM)
Low50 °F (Jan 27, 11:50 PM)45% (Jan 25, 12:50 PM)29.74 "Hg (Jan 30, 12:50 AM)
Average58 °F75%29.99 "Hg
* Reported Jan 17 2:20 AM — Feb 1 2:50 AM, Rhodes, Weather by CustomWeather, © 2014

Note: Actual official high and low records may vary slightly from our data, if they occured in-between our weather recording intervals... More about our weather records

Advertising

Rhodes weather history for previous 24 hours

 ConditionsComfort  
Time TempWeatherWind HumidityBarometerVisibility
2:50 AM
Feb 1
64 °FPassing clouds.13 mph56%29.83 "HgN/A
2:20 AM64 °FPassing clouds.12 mph60%29.80 "HgN/A
1:50 AM64 °FPassing clouds.12 mph60%29.83 "HgN/A
1:20 AM61 °FPartly cloudy.8 mph68%29.83 "HgN/A
12:50 AM61 °FPassing clouds.3 mph68%29.83 "HgN/A
12:20 AM63 °FPartly cloudy.3 mph64%29.86 "HgN/A
11:50 PM
Jan 31
63 °FPassing clouds.3 mph64%29.83 "HgN/A
11:20 PM63 °FPassing clouds.3 mph59%29.83 "HgN/A
10:50 PM63 °FPassing clouds.6 mph59%29.83 "HgN/A
10:20 PM61 °FPassing clouds.6 mph72%29.83 "HgN/A
9:50 PM61 °FPassing clouds.6 mph72%29.83 "HgN/A
9:20 PM61 °FPassing clouds.6 mph68%29.80 "HgN/A
8:50 PM61 °FPassing clouds.6 mph68%29.80 "HgN/A
8:20 PM61 °FPassing clouds.6 mph72%29.80 "HgN/A
7:50 PM61 °FPassing clouds.6 mph72%29.80 "HgN/A
7:20 PM61 °FPassing clouds.8 mph68%29.80 "HgN/A
6:50 PM61 °FPassing clouds.8 mph68%29.80 "HgN/A
6:20 PM63 °FPassing clouds.9 mph68%29.77 "HgN/A
5:50 PM63 °FPassing clouds.9 mph68%29.77 "HgN/A
5:20 PM63 °FScattered clouds.7 mph68%29.77 "HgN/A
4:50 PM63 °FPartly sunny.9 mph68%29.77 "HgN/A
4:20 PM63 °FPartly sunny.10 mph77%29.77 "HgN/A
3:50 PM63 °FPartly sunny.12 mph77%29.77 "HgN/A
3:20 PM64 °FPartly sunny.10 mph60%29.77 "HgN/A
2:50 PM64 °FPartly sunny.6 mph60%29.80 "HgN/A
2:20 PM64 °FPartly sunny.10 mph60%29.80 "HgN/A
1:50 PM64 °FPartly sunny.8 mph60%29.80 "HgN/A
1:20 PM63 °FPartly sunny.13 mph64%29.80 "HgN/A
12:50 PM63 °FPartly sunny.12 mph64%29.80 "HgN/A
12:20 PM63 °FPartly sunny.12 mph59%29.83 "HgN/A
11:50 AM63 °FPartly sunny.9 mph59%29.83 "HgN/A
11:20 AM63 °FPartly sunny.10 mph59%29.80 "HgN/A
10:50 AM63 °FPartly sunny.13 mph59%29.80 "HgN/A
10:20 AM61 °FPartly sunny.8 mph68%29.80 "HgN/A
9:50 AM61 °FPartly sunny.9 mph68%29.80 "HgN/A
9:20 AM61 °FPartly sunny.9 mph63%29.83 "HgN/A
8:50 AM61 °FPartly sunny.10 mph63%29.80 "HgN/A
8:20 AM61 °FPartly sunny.13 mph63%29.80 "HgN/A
7:50 AM61 °FScattered clouds.6 mph63%29.80 "HgN/A
7:20 AM59 °FScattered clouds.3 mph68%29.80 "HgN/A
6:50 AM59 °FPassing clouds.2 mph59%29.80 "HgN/A
6:20 AM59 °FPassing clouds.3 mph63%29.77 "HgN/A
Weather by CustomWeather, © 2014

See weather overviewHow to use our weather pages